Saint Bonnet de Bellac- Haute Vienne - France
Donnes mto: dimanche, 06/05/2012
Date Horaire Temp. E. Hum. E. P.atmo. Pluie Vent Direction Direction Ensoleilleme Solaire P. de rose Temp au vent Rafales
06/05/2012 00:00 9,8 C 89 % 1006,8 hPa 0,0 mm 1,1 km/h (1 Bft) SO 225 0 min 0 W/m 8,1 C 9,8 C 4,0 km/h (1 Bft)
06/05/2012 00:10 9,9 C 89 % 1006,8 hPa 0,0 mm 2,9 km/h (1 Bft) S-SO 202 0 min 0 W/m 8,2 C 9,9 C 4,3 km/h (1 Bft)
06/05/2012 00:20 10,0 C 89 % 1006,9 hPa 0,0 mm 1,8 km/h (1 Bft) S-SO 202 0 min 0 W/m 8,3 C 10,0 C 3,6 km/h (1 Bft)
06/05/2012 00:30 10,1 C 89 % 1006,8 hPa 0,0 mm 1,4 km/h (1 Bft) SO 225 0 min 0 W/m 8,4 C 10,1 C 1,4 km/h (1 Bft)
06/05/2012 00:40 10,1 C 89 % 1006,8 hPa 0,0 mm 5,4 km/h (2 Bft) S-SO 202 0 min 0 W/m 8,4 C 10,1 C 7,6 km/h (2 Bft)
06/05/2012 00:50 10,1 C 88 % 1006,9 hPa 0,0 mm 3,6 km/h (1 Bft) SO 225 0 min 0 W/m 8,2 C 10,1 C 4,3 km/h (1 Bft)
06/05/2012 01:00 10,1 C 88 % 1007,0 hPa 0,0 mm 7,9 km/h (2 Bft) O-SO 247 0 min 0 W/m 8,2 C 10,1 C 12,2 km/h (2 Bft)
06/05/2012 01:10 10,0 C 88 % 1007,1 hPa 0,0 mm 7,2 km/h (2 Bft) SO 225 0 min 0 W/m 8,1 C 9,2 C 7,9 km/h (2 Bft)
06/05/2012 01:20 10,0 C 89 % 1007,1 hPa 0,0 mm 3,2 km/h (1 Bft) S-SO 202 0 min 0 W/m 8,3 C 10,0 C 4,0 km/h (1 Bft)
06/05/2012 01:30 10,1 C 89 % 1007,2 hPa 0,0 mm 1,8 km/h (1 Bft) O-SO 247 0 min 0 W/m 8,4 C 10,1 C 4,3 km/h (1 Bft)
06/05/2012 01:40 10,1 C 89 % 1007,2 hPa 0,0 mm 3,2 km/h (1 Bft) SO 225 0 min 0 W/m 8,4 C 10,1 C 4,0 km/h (1 Bft)
06/05/2012 01:50 10,1 C 89 % 1007,2 hPa 0,0 mm 0,4 km/h (0 Bft) O-SO 247 0 min 0 W/m 8,4 C 10,1 C 2,9 km/h (1 Bft)
06/05/2012 02:00 10,1 C 89 % 1007,3 hPa 0,0 mm 0,0 km/h (0 Bft) O 270 0 min 0 W/m 8,4 C 10,1 C 0,0 km/h (0 Bft)
06/05/2012 02:10 10,1 C 89 % 1007,2 hPa 0,0 mm 3,2 km/h (1 Bft) O 270 0 min 0 W/m 8,4 C 10,1 C 3,2 km/h (1 Bft)
06/05/2012 02:20 10,1 C 90 % 1007,3 hPa 0,0 mm 0,0 km/h (0 Bft) O-NO 292 0 min 0 W/m 8,5 C 10,1 C 2,9 km/h (1 Bft)
06/05/2012 02:30 10,1 C 90 % 1007,3 hPa 0,1 mm 0,0 km/h (0 Bft) O-SO 247 0 min 0 W/m 8,5 C 10,1 C 0,0 km/h (0 Bft)
06/05/2012 02:40 10,1 C 90 % 1007,3 hPa 0,0 mm 0,0 km/h (0 Bft) N 360 0 min 0 W/m 8,5 C 10,1 C 0,0 km/h (0 Bft)
06/05/2012 02:50 10,1 C 90 % 1007,4 hPa 0,0 mm 0,0 km/h (0 Bft) N 360 0 min 0 W/m 8,5 C 10,1 C 0,0 km/h (0 Bft)
06/05/2012 03:02 10,1 C 90 % 1007,3 hPa 0,0 mm 0,0 km/h (0 Bft) N 360 0 min 0 W/m 8,5 C 10,1 C 0,0 km/h (0 Bft)
06/05/2012 03:10 10,1 C 90 % 1007,3 hPa 0,0 mm 0,0 km/h (0 Bft) N 360 0 min 0 W/m 8,5 C 10,1 C 0,0 km/h (0 Bft)
06/05/2012 03:20 10,1 C 90 % 1007,3 hPa 0,0 mm 0,0 km/h (0 Bft) N 360 0 min 0 W/m 8,5 C 10,1 C 0,0 km/h (0 Bft)
06/05/2012 03:30 10,1 C 90 % 1007,3 hPa 0,0 mm 0,0 km/h (0 Bft) N 360 0 min 0 W/m 8,5 C 10,1 C 0,0 km/h (0 Bft)
06/05/2012 03:40 10,1 C 90 % 1007,4 hPa 0,0 mm 0,0 km/h (0 Bft) N 360 0 min 0 W/m 8,5 C 10,1 C 0,0 km/h (0 Bft)
06/05/2012 03:50 10,1 C 90 % 1007,5 hPa 0,0 mm 0,0 km/h (0 Bft) N 360 0 min 0 W/m 8,5 C 10,1 C 0,0 km/h (0 Bft)
06/05/2012 04:00 10,1 C 90 % 1007,5 hPa 0,0 mm 0,0 km/h (0 Bft) N 360 0 min 0 W/m 8,5 C 10,1 C 0,0 km/h (0 Bft)
06/05/2012 04:10 10,1 C 90 % 1007,5 hPa 0,0 mm 0,0 km/h (0 Bft) N 360 0 min 0 W/m 8,5 C 10,1 C 0,0 km/h (0 Bft)
06/05/2012 04:20 9,4 C 93 % 1007,7 hPa 0,0 mm 4,0 km/h (1 Bft) S-SO 202 0 min 0 W/m 8,3 C 9,4 C 4,3 km/h (1 Bft)
06/05/2012 04:30 9,4 C 93 % 1007,6 hPa 0,0 mm 2,2 km/h (1 Bft) S-SO 202 0 min 0 W/m 8,3 C 9,4 C 2,9 km/h (1 Bft)
06/05/2012 04:40 9,4 C 92 % 1007,8 hPa 0,0 mm 4,0 km/h (1 Bft) S-SO 202 0 min 0 W/m 8,2 C 9,4 C 8,3 km/h (2 Bft)
06/05/2012 04:50 9,4 C 92 % 1007,8 hPa 0,0 mm 2,5 km/h (1 Bft) O-SO 247 0 min 0 W/m 8,2 C 9,4 C 3,2 km/h (1 Bft)
06/05/2012 05:00 9,3 C 92 % 1007,9 hPa 0,0 mm 5,8 km/h (2 Bft) O-SO 247 0 min 0 W/m 8,1 C 8,7 C 8,6 km/h (2 Bft)
06/05/2012 05:10 9,3 C 92 % 1007,9 hPa 0,0 mm 4,0 km/h (1 Bft) SO 225 0 min 0 W/m 8,1 C 9,3 C 7,6 km/h (2 Bft)
06/05/2012 05:20 9,3 C 92 % 1007,9 hPa 0,0 mm 1,4 km/h (1 Bft) S-SO 202 0 min 0 W/m 8,1 C 9,3 C 4,3 km/h (1 Bft)
06/05/2012 05:30 9,3 C 92 % 1007,9 hPa 0,0 mm 3,2 km/h (1 Bft) SO 225 0 min 0 W/m 8,1 C 9,3 C 3,2 km/h (1 Bft)
06/05/2012 05:40 9,3 C 92 % 1007,9 hPa 0,0 mm 4,0 km/h (1 Bft) SO 225 0 min 0 W/m 8,1 C 9,3 C 6,8 km/h (2 Bft)
06/05/2012 05:50 9,3 C 93 % 1008,0 hPa 0,0 mm 2,2 km/h (1 Bft) SO 225 0 min 0 W/m 8,2 C 9,3 C 4,0 km/h (1 Bft)
06/05/2012 06:00 9,3 C 93 % 1007,9 hPa 0,0 mm 5,8 km/h (2 Bft) S-SO 202 0 min 0 W/m 8,2 C 8,7 C 7,9 km/h (2 Bft)
06/05/2012 06:10 9,3 C 93 % 1008,0 hPa 0,0 mm 2,5 km/h (1 Bft) SO 225 0 min 0 W/m 8,2 C 9,3 C 4,3 km/h (1 Bft)
06/05/2012 06:20 9,3 C 93 % 1008,0 hPa 0,0 mm 0,0 km/h (0 Bft) S-SO 202 0 min 0 W/m 8,2 C 9,3 C 0,0 km/h (0 Bft)
06/05/2012 06:30 9,4 C 93 % 1008,0 hPa 0,0 mm 1,8 km/h (1 Bft) SO 225 0 min 0 W/m 8,3 C 9,4 C 3,6 km/h (1 Bft)
06/05/2012 06:40 9,4 C 93 % 1008,2 hPa 0,0 mm 1,8 km/h (1 Bft) SO 225 0 min 0 W/m 8,3 C 9,4 C 4,0 km/h (1 Bft)
06/05/2012 06:50 9,4 C 93 % 1008,4 hPa 0,0 mm 3,6 km/h (1 Bft) SO 225 2 min 0 W/m 8,3 C 9,4 C 4,3 km/h (1 Bft)
06/05/2012 07:00 9,4 C 93 % 1008,4 hPa 0,0 mm 8,3 km/h (2 Bft) SO 225 2 min 0 W/m 8,3 C 8,2 C 9,7 km/h (2 Bft)
06/05/2012 07:10 9,5 C 93 % 1008,5 hPa 0,0 mm 4,0 km/h (1 Bft) O-SO 247 2 min 0 W/m 8,4 C 9,5 C 7,2 km/h (2 Bft)
06/05/2012 07:20 9,5 C 93 % 1008,6 hPa 0,0 mm 2,5 km/h (1 Bft) O-SO 247 2 min 0 W/m 8,4 C 9,5 C 4,3 km/h (1 Bft)
06/05/2012 07:30 9,6 C 92 % 1008,6 hPa 0,0 mm 4,7 km/h (1 Bft) S-SO 202 2 min 0 W/m 8,4 C 9,4 C 6,8 km/h (2 Bft)
06/05/2012 07:40 9,6 C 91 % 1008,7 hPa 0,0 mm 5,4 km/h (2 Bft) O-SO 247 2 min 0 W/m 8,2 C 9,2 C 8,3 km/h (2 Bft)
06/05/2012 07:50 9,6 C 91 % 1008,9 hPa 0,0 mm 8,3 km/h (2 Bft) SO 225 2 min 0 W/m 8,2 C 8,5 C 11,5 km/h (2 Bft)
06/05/2012 08:00 9,6 C 91 % 1009,0 hPa 0,0 mm 2,9 km/h (1 Bft) SO 225 2 min 0 W/m 8,2 C 9,6 C 6,5 km/h (2 Bft)
06/05/2012 08:10 9,8 C 91 % 1009,0 hPa 0,0 mm 4,3 km/h (1 Bft) O-SO 247 2 min 0 W/m 8,4 C 9,8 C 8,6 km/h (2 Bft)
06/05/2012 08:20 9,8 C 91 % 1009,0 hPa 0,0 mm 5,8 km/h (2 Bft) SO 225 2 min 0 W/m 8,4 C 9,3 C 9,0 km/h (2 Bft)
06/05/2012 08:30 10,0 C 90 % 1009,1 hPa 0,0 mm 6,1 km/h (2 Bft) SO 225 2 min 0 W/m 8,4 C 9,4 C 11,5 km/h (2 Bft)
06/05/2012 08:40 10,1 C 90 % 1009,3 hPa 0,0 mm 6,5 km/h (2 Bft) S-SO 202 2 min 0 W/m 8,5 C 10,1 C 8,3 km/h (2 Bft)
06/05/2012 08:50 10,3 C 90 % 1009,3 hPa 0,0 mm 9,0 km/h (2 Bft) SO 225 2 min 0 W/m 8,7 C 10,3 C 14,4 km/h (3 Bft)
06/05/2012 09:00 10,5 C 90 % 1009,4 hPa 0,0 mm 4,3 km/h (1 Bft) S-SO 202 2 min 0 W/m 8,9 C 10,5 C 8,3 km/h (2 Bft)
06/05/2012 09:10 10,5 C 90 % 1009,4 hPa 0,0 mm 3,2 km/h (1 Bft) SO 225 2 min 0 W/m 8,9 C 10,5 C 4,3 km/h (1 Bft)
06/05/2012 09:20 10,5 C 90 % 1009,6 hPa 0,1 mm 4,7 km/h (1 Bft) SO 225 2 min 0 W/m 8,9 C 10,5 C 10,4 km/h (2 Bft)
06/05/2012 09:30 10,5 C 91 % 1009,7 hPa 0,0 mm 2,9 km/h (1 Bft) S-SO 202 2 min 0 W/m 9,1 C 10,5 C 4,0 km/h (1 Bft)
06/05/2012 09:40 10,6 C 91 % 1009,7 hPa 0,0 mm 1,8 km/h (1 Bft) SO 225 2 min 0 W/m 9,2 C 10,6 C 6,1 km/h (2 Bft)
06/05/2012 09:50 10,6 C 92 % 1009,8 hPa 0,0 mm 6,1 km/h (2 Bft) SO 225 2 min 0 W/m 9,4 C 10,6 C 8,6 km/h (2 Bft)
06/05/2012 10:00 10,8 C 92 % 1009,9 hPa 0,1 mm 7,2 km/h (2 Bft) SO 225 2 min 0 W/m 9,6 C 10,8 C 7,2 km/h (2 Bft)
06/05/2012 10:10 11,4 C 91 % 1010,0 hPa 0,0 mm 1,8 km/h (1 Bft) SO 225 2 min 0 W/m 10,0 C 11,4 C 7,6 km/h (2 Bft)
06/05/2012 10:20 11,6 C 88 % 1010,0 hPa 0,1 mm 8,3 km/h (2 Bft) S-SO 202 2 min 0 W/m 9,7 C 11,6 C 8,3 km/h (2 Bft)
06/05/2012 10:30 11,4 C 89 % 1010,1 hPa 0,2 mm 4,3 km/h (1 Bft) S-SO 202 2 min 0 W/m 9,7 C 11,4 C 7,2 km/h (2 Bft)
06/05/2012 10:40 11,3 C 90 % 1010,1 hPa 0,0 mm 4,3 km/h (1 Bft) S 180 2 min 0 W/m 9,7 C 11,3 C 9,0 km/h (2 Bft)
06/05/2012 10:50 11,5 C 90 % 1010,2 hPa 0,0 mm 13,3 km/h (3 Bft) SO 225 2 min 0 W/m 9,9 C 11,5 C 18,4 km/h (3 Bft)
06/05/2012 11:00 12,1 C 88 % 1010,5 hPa 0,0 mm 7,9 km/h (2 Bft) O-SO 247 2 min 0 W/m 10,2 C 12,1 C 11,5 km/h (2 Bft)
06/05/2012 11:10 12,6 C 86 % 1010,5 hPa 0,0 mm 12,2 km/h (2 Bft) O-SO 247 2 min 0 W/m 10,3 C 12,6 C 12,2 km/h (2 Bft)
06/05/2012 11:20 12,9 C 85 % 1010,6 hPa 0,0 mm 6,1 km/h (2 Bft) S-SO 202 2 min 0 W/m 10,4 C 12,9 C 8,6 km/h (2 Bft)
06/05/2012 11:30 13,6 C 83 % 1010,6 hPa 0,0 mm 2,2 km/h (1 Bft) S-SO 202 2 min 0 W/m 10,8 C 13,6 C 4,0 km/h (1 Bft)
06/05/2012 11:40 13,8 C 78 % 1010,8 hPa 0,0 mm 10,1 km/h (2 Bft) SO 225 2 min 0 W/m 10,0 C 13,8 C 16,9 km/h (3 Bft)
06/05/2012 11:50 13,6 C 78 % 1010,8 hPa 0,0 mm 4,7 km/h (1 Bft) S-SO 202 2 min 0 W/m 9,8 C 13,6 C 5,8 km/h (2 Bft)
06/05/2012 12:00 13,4 C 80 % 1010,9 hPa 0,0 mm 10,1 km/h (2 Bft) S-SO 202 2 min 0 W/m 10,0 C 13,4 C 14,4 km/h (3 Bft)
06/05/2012 12:10 13,6 C 77 % 1011,0 hPa 0,0 mm 12,2 km/h (2 Bft) SO 225 2 min 0 W/m 9,6 C 13,6 C 25,9 km/h (4 Bft)
06/05/2012 12:20 13,6 C 78 % 1011,0 hPa 0,0 mm 9,4 km/h (2 Bft) SO 225 2 min 0 W/m 9,8 C 13,6 C 15,1 km/h (3 Bft)
06/05/2012 12:30 13,8 C 75 % 1011,0 hPa 0,0 mm 6,8 km/h (2 Bft) S-SO 202 2 min 0 W/m 9,4 C 13,8 C 15,1 km/h (3 Bft)
06/05/2012 12:40 13,8 C 75 % 1010,9 hPa 0,0 mm 6,8 km/h (2 Bft) S-SO 202 2 min 0 W/m 9,4 C 13,8 C 15,1 km/h (3 Bft)
06/05/2012 12:50 13,8 C 75 % 1011,0 hPa 0,0 mm 6,8 km/h (2 Bft) N 360 2 min 0 W/m 9,4 C 13,8 C 6,8 km/h (2 Bft)
06/05/2012 13:00 13,8 C 75 % 1011,0 hPa 0,0 mm 6,8 km/h (2 Bft) N 360 2 min 0 W/m 9,4 C 13,8 C 6,8 km/h (2 Bft)
06/05/2012 13:10 14,5 C 74 % 1011,2 hPa 0,0 mm 2,2 km/h (1 Bft) S-SO 202 2 min 0 W/m 9,9 C 14,5 C 3,2 km/h (1 Bft)
06/05/2012 13:20 14,2 C 77 % 1011,2 hPa 0,0 mm 5,4 km/h (2 Bft) NO 315 2 min 0 W/m 10,2 C 14,2 C 11,9 km/h (2 Bft)
06/05/2012 13:30 14,3 C 77 % 1011,3 hPa 0,1 mm 10,8 km/h (2 Bft) O-SO 247 2 min 0 W/m 10,3 C 14,3 C 11,9 km/h (2 Bft)
06/05/2012 13:40 14,8 C 73 % 1011,2 hPa 0,0 mm 6,1 km/h (2 Bft) SO 225 2 min 0 W/m 10,0 C 14,8 C 13,3 km/h (3 Bft)
06/05/2012 13:50 15,1 C 70 % 1011,2 hPa 0,0 mm 8,6 km/h (2 Bft) S-SO 202 2 min 0 W/m 9,7 C 15,1 C 13,0 km/h (3 Bft)
06/05/2012 14:00 14,9 C 70 % 1011,2 hPa 0,0 mm 6,5 km/h (2 Bft) O-SO 247 2 min 0 W/m 9,5 C 14,9 C 14,0 km/h (3 Bft)
06/05/2012 14:10 14,9 C 70 % 1011,2 hPa 0,0 mm 1,8 km/h (1 Bft) O-SO 247 2 min 0 W/m 9,5 C 14,9 C 4,3 km/h (1 Bft)
06/05/2012 14:20 15,1 C 70 % 1011,2 hPa 0,0 mm 8,3 km/h (2 Bft) S-SO 202 2 min 0 W/m 9,7 C 15,1 C 9,7 km/h (2 Bft)
06/05/2012 14:30 15,5 C 67 % 1011,2 hPa 0,0 mm 6,1 km/h (2 Bft) O 270 2 min 0 W/m 9,4 C 15,5 C 10,4 km/h (2 Bft)
06/05/2012 14:40 15,6 C 66 % 1011,2 hPa 0,0 mm 4,3 km/h (1 Bft) S-SO 202 2 min 0 W/m 9,3 C 15,6 C 10,4 km/h (2 Bft)
06/05/2012 14:50 15,8 C 61 % 1011,3 hPa 0,0 mm 8,3 km/h (2 Bft) SO 225 2 min 0 W/m 8,3 C 15,8 C 8,3 km/h (2 Bft)
06/05/2012 15:00 15,9 C 63 % 1011,4 hPa 0,0 mm 5,8 km/h (2 Bft) O-SO 247 2 min 0 W/m 8,9 C 15,9 C 11,9 km/h (2 Bft)
06/05/2012 15:10 15,9 C 59 % 1011,4 hPa 0,0 mm 9,0 km/h (2 Bft) O-SO 247 2 min 0 W/m 7,9 C 15,9 C 14,0 km/h (3 Bft)
06/05/2012 15:20 15,6 C 62 % 1011,5 hPa 0,0 mm 4,0 km/h (1 Bft) O-SO 247 2 min 0 W/m 8,3 C 15,6 C 8,6 km/h (2 Bft)
06/05/2012 15:30 15,2 C 64 % 1011,6 hPa 0,0 mm 4,0 km/h (1 Bft) S-SO 202 2 min 0 W/m 8,4 C 15,2 C 6,5 km/h (2 Bft)
06/05/2012 15:40 14,8 C 67 % 1011,5 hPa 0,0 mm 1,8 km/h (1 Bft) O-SO 247 2 min 0 W/m 8,7 C 14,8 C 4,0 km/h (1 Bft)
06/05/2012 15:50 14,5 C 67 % 1011,6 hPa 0,0 mm 3,6 km/h (1 Bft) SO 225 2 min 0 W/m 8,4 C 14,5 C 3,6 km/h (1 Bft)
06/05/2012 16:00 14,3 C 68 % 1011,6 hPa 0,0 mm 1,4 km/h (1 Bft) SO 225 2 min 0 W/m 8,5 C 14,3 C 3,2 km/h (1 Bft)
06/05/2012 16:10 14,3 C 70 % 1011,6 hPa 0,0 mm 2,9 km/h (1 Bft) O 270 2 min 0 W/m 8,9 C 14,3 C 3,6 km/h (1 Bft)
06/05/2012 16:20 14,8 C 68 % 1011,5 hPa 0,0 mm 6,1 km/h (2 Bft) SO 225 2 min 0 W/m 9,0 C 14,8 C 13,7 km/h (3 Bft)
06/05/2012 16:30 15,1 C 68 % 1011,6 hPa 0,0 mm 7,2 km/h (2 Bft) O-SO 247 2 min 0 W/m 9,2 C 15,1 C 13,0 km/h (3 Bft)
06/05/2012 16:40 15,8 C 64 % 1011,5 hPa 0,0 mm 2,2 km/h (1 Bft) SO 225 2 min 0 W/m 9,0 C 15,8 C 7,2 km/h (2 Bft)
06/05/2012 16:50 16,2 C 60 % 1011,6 hPa 0,0 mm 6,1 km/h (2 Bft) S 180 2 min 0 W/m 8,4 C 16,2 C 9,4 km/h (2 Bft)
06/05/2012 17:00 16,5 C 60 % 1011,5 hPa 0,0 mm 5,8 km/h (2 Bft) O-SO 247 2 min 0 W/m 8,7 C 16,5 C 8,6 km/h (2 Bft)
06/05/2012 17:10 16,8 C 58 % 1011,7 hPa 0,0 mm 7,6 km/h (2 Bft) O-SO 247 2 min 0 W/m 8,5 C 16,8 C 9,0 km/h (2 Bft)
06/05/2012 17:20 16,8 C 55 % 1011,7 hPa 0,0 mm 9,0 km/h (2 Bft) O 270 2 min 0 W/m 7,7 C 16,8 C 12,6 km/h (3 Bft)
06/05/2012 17:30 16,5 C 56 % 1011,8 hPa 0,0 mm 11,2 km/h (2 Bft) O-SO 247 2 min 0 W/m 7,7 C 16,5 C 16,9 km/h (3 Bft)
06/05/2012 17:40 16,6 C 57 % 1011,8 hPa 0,0 mm 4,3 km/h (1 Bft) O-SO 247 2 min 0 W/m 8,0 C 16,6 C 7,6 km/h (2 Bft)
06/05/2012 17:50 16,6 C 58 % 1012,0 hPa 0,0 mm 5,4 km/h (2 Bft) O 270 2 min 0 W/m 8,3 C 16,6 C 8,6 km/h (2 Bft)
06/05/2012 18:00 16,5 C 60 % 1012,1 hPa 0,0 mm 2,5 km/h (1 Bft) O-SO 247 2 min 0 W/m 8,7 C 16,5 C 2,5 km/h (1 Bft)
06/05/2012 18:10 16,5 C 59 % 1012,1 hPa 0,0 mm 1,1 km/h (1 Bft) O-SO 247 2 min 0 W/m 8,5 C 16,5 C 1,1 km/h (1 Bft)
06/05/2012 18:20 16,6 C 56 % 1012,3 hPa 0,0 mm 5,4 km/h (2 Bft) O-NO 292 2 min 0 W/m 7,8 C 16,6 C 7,2 km/h (2 Bft)
06/05/2012 18:30 16,4 C 57 % 1012,4 hPa 0,0 mm 0,7 km/h (0 Bft) O 270 2 min 0 W/m 7,9 C 16,4 C 6,8 km/h (2 Bft)
06/05/2012 18:40 16,2 C 57 % 1012,3 hPa 0,0 mm 6,1 km/h (2 Bft) O 270 2 min 0 W/m 7,7 C 16,2 C 10,4 km/h (2 Bft)
06/05/2012 18:50 16,2 C 57 % 1012,4 hPa 0,0 mm 4,0 km/h (1 Bft) SO 225 2 min 0 W/m 7,7 C 16,2 C 4,0 km/h (1 Bft)
06/05/2012 19:00 15,9 C 58 % 1012,5 hPa 0,0 mm 0,0 km/h (0 Bft) O-SO 247 2 min 0 W/m 7,6 C 15,9 C 0,0 km/h (0 Bft)
06/05/2012 19:10 15,4 C 59 % 1012,6 hPa 0,0 mm 2,5 km/h (1 Bft) SO 225 2 min 0 W/m 7,4 C 15,4 C 4,3 km/h (1 Bft)
06/05/2012 19:20 15,0 C 59 % 1012,7 hPa 0,0 mm 5,0 km/h (1 Bft) SO 225 2 min 0 W/m 7,1 C 15,0 C 8,6 km/h (2 Bft)
06/05/2012 19:30 15,1 C 59 % 1012,8 hPa 0,0 mm 6,1 km/h (2 Bft) SO 225 2 min 0 W/m 7,1 C 15,1 C 15,8 km/h (3 Bft)
06/05/2012 19:40 15,1 C 58 % 1013,0 hPa 0,0 mm 2,5 km/h (1 Bft) SO 225 2 min 0 W/m 6,9 C 15,1 C 2,9 km/h (1 Bft)
06/05/2012 19:50 14,9 C 57 % 1013,1 hPa 0,0 mm 3,2 km/h (1 Bft) O-SO 247 2 min 0 W/m 6,5 C 14,9 C 7,6 km/h (2 Bft)
06/05/2012 20:00 14,8 C 58 % 1013,1 hPa 0,0 mm 4,3 km/h (1 Bft) SO 225 2 min 0 W/m 6,6 C 14,8 C 11,5 km/h (2 Bft)
06/05/2012 20:10 14,6 C 60 % 1013,1 hPa 0,0 mm 1,8 km/h (1 Bft) O 270 2 min 0 W/m 6,9 C 14,6 C 6,1 km/h (2 Bft)
06/05/2012 20:20 14,4 C 61 % 1013,3 hPa 0,0 mm 1,8 km/h (1 Bft) SO 225 2 min 0 W/m 7,0 C 14,4 C 4,3 km/h (1 Bft)
06/05/2012 20:30 13,9 C 62 % 1013,4 hPa 0,0 mm 0,4 km/h (0 Bft) SO 225 2 min 0 W/m 6,7 C 13,9 C 3,2 km/h (1 Bft)
06/05/2012 20:40 13,5 C 64 % 1013,6 hPa 0,0 mm 0,7 km/h (0 Bft) O 270 2 min 0 W/m 6,8 C 13,5 C 4,0 km/h (1 Bft)
06/05/2012 20:50 13,0 C 64 % 1013,7 hPa 0,0 mm 0,7 km/h (0 Bft) O-SO 247 2 min 0 W/m 6,4 C 13,0 C 2,9 km/h (1 Bft)
06/05/2012 21:00 12,5 C 65 % 1013,8 hPa 0,0 mm 2,5 km/h (1 Bft) SO 225 2 min 0 W/m 6,1 C 12,5 C 4,0 km/h (1 Bft)
06/05/2012 21:10 12,1 C 67 % 1014,0 hPa 0,0 mm 0,0 km/h (0 Bft) O-SO 247 0 min 0 W/m 6,2 C 12,1 C 3,6 km/h (1 Bft)
06/05/2012 21:20 11,6 C 69 % 1014,1 hPa 0,0 mm 0,0 km/h (0 Bft) O-SO 247 0 min 0 W/m 6,1 C 11,6 C 0,0 km/h (0 Bft)
06/05/2012 21:30 11,2 C 69 % 1014,3 hPa 0,0 mm 0,0 km/h (0 Bft) O-SO 247 0 min 0 W/m 5,7 C 11,2 C 0,0 km/h (0 Bft)
06/05/2012 21:40 10,6 C 70 % 1014,4 hPa 0,0 mm 0,0 km/h (0 Bft) O 270 0 min 0 W/m 5,4 C 10,6 C 0,0 km/h (0 Bft)
06/05/2012 21:50 10,2 C 72 % 1014,5 hPa 0,0 mm 0,0 km/h (0 Bft) O-SO 247 0 min 0 W/m 5,4 C 10,2 C 0,0 km/h (0 Bft)
06/05/2012 22:00 9,8 C 73 % 1014,6 hPa 0,0 mm 0,0 km/h (0 Bft) O-SO 247 0 min 0 W/m 5,2 C 9,8 C 0,0 km/h (0 Bft)
06/05/2012 22:10 9,3 C 74 % 1014,8 hPa 0,0 mm 0,0 km/h (0 Bft) O 270 0 min 0 W/m 4,9 C 9,3 C 4,0 km/h (1 Bft)
06/05/2012 22:20 8,9 C 76 % 1014,8 hPa 0,0 mm 0,0 km/h (0 Bft) SO 225 0 min 0 W/m 4,9 C 8,9 C 0,0 km/h (0 Bft)
06/05/2012 22:30 8,6 C 77 % 1015,0 hPa 0,0 mm 0,0 km/h (0 Bft) S-SO 202 0 min 0 W/m 4,8 C 8,6 C 0,0 km/h (0 Bft)
06/05/2012 22:40 8,3 C 77 % 1015,2 hPa 0,0 mm 0,0 km/h (0 Bft) S-SO 202 0 min 0 W/m 4,5 C 8,3 C 0,0 km/h (0 Bft)
06/05/2012 22:50 8,1 C 78 % 1015,2 hPa 0,0 mm 0,0 km/h (0 Bft) S-SO 202 0 min 0 W/m 4,5 C 8,1 C 0,0 km/h (0 Bft)
06/05/2012 23:00 7,8 C 79 % 1015,4 hPa 0,0 mm 0,0 km/h (0 Bft) S-SO 202 0 min 0 W/m 4,4 C 7,8 C 0,0 km/h (0 Bft)
06/05/2012 23:10 7,6 C 80 % 1015,5 hPa 0,0 mm 0,0 km/h (0 Bft) S-SO 202 0 min 0 W/m 4,4 C 7,6 C 0,0 km/h (0 Bft)
06/05/2012 23:20 7,4 C 81 % 1015,5 hPa 0,0 mm 0,0 km/h (0 Bft) S-SO 202 0 min 0 W/m 4,4 C 7,4 C 0,0 km/h (0 Bft)
06/05/2012 23:30 7,3 C 82 % 1015,5 hPa 0,0 mm 0,4 km/h (0 Bft) SO 225 0 min 0 W/m 4,4 C 7,3 C 0,4 km/h (0 Bft)
06/05/2012 23:40 7,2 C 84 % 1015,5 hPa 0,0 mm 0,0 km/h (0 Bft) SO 225 0 min 0 W/m 4,7 C 7,2 C 0,0 km/h (0 Bft)
06/05/2012 23:50 7,3 C 84 % 1015,6 hPa 0,0 mm 0,4 km/h (0 Bft) SO 225 0 min 0 W/m 4,8 C 7,3 C 3,2 km/h (1 Bft)
_ Min-Heure 23:40 17:20 00:40 - 23:40 - - - - 23:20 23:40 23:40
Minimum _ 7,2 C 55 % 1006,8 hPa - 0,0 km/h (0 Bft) - - - - 4,4 C 7,2 C 0,0 km/h (0 Bft)
_ Max-Heure 17:20 07:20 23:50 10:30 10:50 - - 21:00 23:50 11:30 17:20 12:10
Maximum _ 16,8 C 93 % 1015,6 hPa 0,2 mm 13,3 km/h
SO (3 Bft)
- - 2 min 0 W/m 10,8 C 16,8 C 25,9 km/h
SO (4 Bft)
Moyenne _ 12,0 C 79 % 1010,5 hPa #0,7 mm 3,8 km/h (1 Bft) SO - #2:52 h 0 W/m 8,1 C 11,9 C 6,3 km/h (2 Bft)
Saint Bonnet de Bellac- Haute Vienne - France